Regional Weather Roundup
Issued by NWS

Home | Current Version | Previous Version | Graphics & Text | Print | Product List | Glossary Off
Versions: 1 2 3 4 5 6 7 8 9 10 11 12 13 14 15 16 17 18 19 20 21 22 23 24 25 26 27 28 29 30 31 32 33 34 35 36 37 38 39 40 41 42 43 44 45 46 47 48 49 50

000
ASUS45 KCYS 291610
RWRWY

WYOMING REGIONAL WEATHER ROUNDUP
NATIONAL WEATHER SERVICE CHEYENNE WY
1000 AM MDT FRI APR 29 2016

NOTE:  "FAIR" INDICATES FEW OR NO CLOUDS BELOW 12,000 FEET
WITH NO SIGNIFICANT WEATHER AND/OR OBSTRUCTIONS TO VISIBILITY.

WYZ001-291700-
YELLOWSTONE NATIONAL PARK

CITY           SKY/WX    TMP DP  RH WIND       PRES   REMARKS
LK YELLOWSTONE   N/A     32  21  64 SE5       29.93F WCI  27
W YELLOWSTONE  NOT AVBL

$$
WYZ002>013-054>058-071-098>099-291700-
NORTHERN WYOMING

CITY           SKY/WX    TMP DP  RH WIND       PRES   REMARKS
JACKSON        MOSUNNY   39  28  65 NE8       29.92F WCI  34
CODY           CLOUDY    39  30  70 CALM      29.97F
GREYBULL       CLOUDY    45  30  55 NE5       29.98F
WORLAND        CLOUDY    42  28  57 CALM      29.98F
SHERIDAN       PTSUNNY   43  29  57 SE9       30.02S
BUFFALO          N/A    N/A N/A N/A MISG      30.02R
GILLETTE       CLOUDY    39  33  79 S12       30.03F WCI  32
HULETT         CLOUDY    37  34  87 E6        30.07S WCI  33
NEWCASTLE      CLOUDY    34  32  93 CALM      30.07F

$$
WYZ014>020-022>026-101>103-291700-
CENTRAL WYOMING

CITY           SKY/WX    TMP DP  RH WIND       PRES   REMARKS
BIG PINEY      CLOUDY    36  25  64 VRB3      29.93S
PINEDALE       PTSUNNY   32  28  86 NW8       29.93F WCI  25
DUBOIS         CLOUDY    28  23  80 CALM      29.94F
LANDER         FLURRIES  34  28  79 NW6       29.96F WCI  29
RIVERTON       CLOUDY    37  29  72 NE8       29.97F WCI  31
CASPER         CLOUDY    36  30  79 E14       29.97F WCI  27
DOUGLAS        CLOUDY    35  32  88 SE8       30.01F WCI  29

$$
WYZ021-027>030-104>119-291700-
SOUTHERN WYOMING

CITY           SKY/WX    TMP DP  RH WIND       PRES   REMARKS
EVANSTON       CLOUDY    33  27  78 E10       29.91R WCI  25
FORT BRIDGER   CLOUDY    32  32 100 E6        29.95R WCI  26
ROCK SPRINGS   LGT SNOW  31  27  85 NE12      29.93S VSB 1   WCI  22
DIXON          FAIR      42  32  67 CALM      29.88F
RAWLINS        CLOUDY    34  29  82 NE14      29.89F WCI  25
SARATOGA       PTSUNNY   36  32  87 NE3       29.88F
LARAMIE        CLOUDY    31  27  85 SE20      29.89F WCI  19
CHEYENNE       CLOUDY    32  32 100 E7        29.95S FOG     WCI  26
TORRINGTON     CLOUDY    39  33  79 CALM      30.00F
PINE BLUFFS    CLOUDY    34  34 100 NE6       29.99R WCI  29

$$



USA.gov is the U.S. government's official web portal to all federal, state and local government web resources and services.